カタログに戻る

SL-12 R/B

AUX MOTOR

運用中HEO
NORAD 21013·ROCKET BODY·🇷🇺 Russia

打ち上げ Dec 8, 1990 から Baikonur Cosmodrome

Loading…

次のパス (今後24時間)

TLE

最新Source: Space-Track

元期: Sep 14, 2026, 03:47 UTC

1 21013U 90110H   26257.15823409  .00002508  00000-0  85170-3 0  9991
2 21013  65.1309 275.1455 5375981 326.5735   8.8529  4.96190194593395

AllMySatでSL-12 R/Bをリアルタイム追跡

Download on the App Store